Home   Weather   Feldkirch   Past weeks

Flag for Austria Past Weather in Feldkirch, Vorarlberg, Austria — Yesterday and Last 2 Weeks

Now
40 °F

Light rain. Overcast.


Feels Like: 40 °F
Forecast: 37 / 44 °F
Wind: 1 mph from North

Location: Feldkirch

Current Time: Apr 26, 2017 at 8:05:49 am

Latest Report: Apr 26, 2017 at 7:00 am


Visibility: 3 mi

Pressure: 29.76 "Hg

Humidity: 94%

Dew Point: 39 °F

Location of FeldkirchLocation

Past Weather in Feldkirch — Graph

°F

Feldkirch Temperature Yesterday

Maximum temperature yesterday: 61 °F (at 2:00 pm)
Minimum temperature yesterday: 45 °F (at 11:00 pm)
Average temperature yesterday: 53 °F

High & Low Weather Summary for the Past Weeks

 TemperatureHumidityPressure
High67 °F (Apr 12, 6:00 pm)100% (Apr 19, 7:00 am)30.59 "Hg (Apr 19, 7:00 am)
Low27 °F (Apr 20, 7:00 am)23% (Apr 21, 5:00 pm)29.70 "Hg (Apr 25, 3:00 pm)
Average47 °F71%30.16 "Hg
* Reported Apr 11 6:00 am — Apr 26 6:00 am, Feldkirch, Weather by CustomWeather, © 2017

Note: Actual official high and low records may vary slightly from our data, if they occured in-between our weather recording intervals... More about our weather records

Advertising

Feldkirch Weather History for the Previous 24 Hours

Scroll right to see more
 ConditionsComfort  
Time TempWeatherWind HumidityBarometerVisibility
6:00 am
Wed, Apr 26
41 °FQuite cool.1 mph95%29.73 "HgN/A
5:00 am44 °FQuite cool.1 mph95%29.73 "HgN/A
4:00 am44 °FFog.No wind93%29.75 "HgN/A
3:00 am45 °FQuite cool.1 mph91%29.75 "HgN/A
2:00 am45 °FQuite cool.1 mph91%29.75 "HgN/A
1:00 am45 °FQuite cool.1 mph92%29.73 "HgN/A
12:00 am45 °FCool.1 mph90%29.74 "HgN/A
11:00 pm
Tue, Apr 25
45 °FCool.2 mph89%29.77 "HgN/A
10:00 pm46 °FFog.3 mph88%29.78 "HgN/A
9:00 pm47 °FCool.5 mph89%29.77 "HgN/A
8:00 pm48 °FCool.5 mph85%29.76 "HgN/A
7:00 pm51 °FCool.5 mph74%29.75 "HgN/A
6:00 pm53 °FCool.5 mph72%29.73 "HgN/A
5:00 pm54 °FCool.5 mph70%29.72 "HgN/A
4:00 pm56 °FFog.2 mph67%29.72 "HgN/A
3:00 pm61 °FRefreshingly cool.5 mph59%29.70 "HgN/A
2:00 pm61 °FRefreshingly cool.5 mph59%29.72 "HgN/A
1:00 pmN/APassing clouds.10 mphN/AN/A3 mi
12:00 pm60 °FCool.3 mph61%29.74 "HgN/A
11:00 am61 °FOvercast.3 mph60%29.73 "Hg9 mi
10:00 am56 °FCool.2 mph74%29.76 "HgN/A
9:00 am55 °FCool.1 mph64%29.76 "HgN/A
8:00 am52 °FCool.2 mph65%29.76 "HgN/A
Weather by CustomWeather, © 2017

See weather overviewHow to use our weather pages